| time (UTC) | temp F | wind direction | speed MPH | gust MPH | rain 1hr in | rain 24hr in | rain mn in | humidity % | barometer mb |
| 20260901191721 | 96 | 199 | 3.0 | 6.0 | 0.00 | 0.00 | 0.00 | 39 | 1014.7 |
| 20260901190723 | 96 | 147 | 10.0 | 14.0 | 0.00 | 0.00 | 0.00 | 40 | 1014.7 |
| 20260901185721 | 97 | 105 | 10.0 | 13.0 | 0.00 | 0.00 | 0.00 | 38 | 1015.1 |
| 20260901184722 | 97 | 89 | 1.0 | 3.0 | 0.00 | 0.00 | 0.00 | 39 | 1015.2 |
| 20260901181836 | 97 | 134 | 4.0 | 7.0 | 0.00 | 0.00 | 0.00 | 39 | 1016.0 |
| 20260901180922 | 96 | 167 | 9.0 | 13.0 | 0.00 | 0.00 | 0.00 | 40 | 1016.0 |
| 20260901180020 | 95 | 183 | 5.0 | 11.0 | 0.00 | 0.00 | 0.00 | 41 | 1016.0 |
| 20260901175036 | 95 | 67 | 5.0 | 8.0 | 0.00 | 0.00 | 0.00 | 42 | 1016.0 |
| 20260901174121 | 96 | 171 | 3.0 | 7.0 | 0.00 | 0.00 | 0.00 | 42 | 1016.4 |
| 20260901173120 | 94 | 162 | 5.0 | 7.0 | 0.00 | 0.00 | 0.00 | 42 | 1016.6 |
| 20260901173022 | 94 | 169 | 8.0 | 12.0 | 0.00 | 0.00 | 0.00 | 43 | 1016.6 |
| 20260901172121 | 94 | 101 | 4.0 | 6.0 | 0.00 | 0.00 | 0.00 | 43 | 1016.7 |
| 20260901170220 | 95 | 80 | 3.0 | 6.0 | 0.00 | 0.00 | 0.00 | 43 | 1016.9 |
| 20260901165222 | 94 | 105 | 7.0 | 10.0 | 0.00 | 0.00 | 0.00 | 43 | 1017.0 |
| 20260901164219 | 94 | 83 | 3.0 | 5.0 | 0.00 | 0.00 | 0.00 | 43 | 1017.0 |
| 20260901163237 | 94 | 112 | 3.0 | 4.0 | 0.00 | 0.00 | 0.00 | 44 | 1017.0 |
| 20260901162322 | 95 | 97 | 4.0 | 7.0 | 0.00 | 0.00 | 0.00 | 43 | 1017.1 |
| 20260901160420 | 94 | 157 | 1.0 | 2.0 | 0.00 | 0.00 | 0.00 | 44 | 1017.0 |
| 20260901155422 | 94 | 184 | 3.0 | 4.0 | 0.00 | 0.00 | 0.00 | 45 | 1017.0 |
| 20260901154437 | 93 | 157 | 2.0 | 5.0 | 0.00 | 0.00 | 0.00 | 46 | 1017.1 |
| 20260901153522 | 92 | 169 | 4.0 | 7.0 | 0.00 | 0.00 | 0.00 | 47 | 1017.0 |
| 20260901151539 | 91 | 164 | 7.0 | 9.0 | 0.00 | 0.00 | 0.00 | 49 | 1017.2 |
| 20260901150520 | 91 | 194 | 3.0 | 5.0 | 0.00 | 0.00 | 0.00 | 51 | 1017.2 |
| 20260901144521 | 89 | 182 | 3.0 | 8.0 | 0.00 | 0.00 | 0.00 | 52 | 1017.2 |
| 20260901143520 | 88 | 228 | 2.0 | 5.0 | 0.00 | 0.00 | 0.00 | 54 | 1017.1 |
| 20260901142522 | 88 | 157 | 5.0 | 7.0 | 0.00 | 0.00 | 0.00 | 55 | 1017.2 |
| 20260901140520 | 85 | 178 | 3.0 | 5.0 | 0.00 | 0.00 | 0.00 | 60 | 1017.4 |
| 20260901135522 | 84 | 137 | 3.0 | 5.0 | 0.00 | 0.00 | 0.00 | 61 | 1017.3 |
| 20260901134620 | 83 | 134 | 3.0 | 5.0 | 0.00 | 0.00 | 0.00 | 62 | 1017.3 |
| 20260901133624 | 81 | 100 | 3.0 | 4.0 | 0.00 | 0.00 | 0.00 | 65 | 1017.3 |
| 20260901132621 | 80 | 90 | 0.0 | 0.0 | 0.00 | 0.00 | 0.00 | 68 | 1017.2 |
| 20260901131720 | 78 | 90 | 0.0 | 1.0 | 0.00 | 0.00 | 0.00 | 71 | 1017.3 |
| 20260901130737 | 78 | 90 | 0.0 | 0.0 | 0.00 | 0.00 | 0.00 | 71 | 1016.9 |
| 20260901124722 | 77 | 157 | 2.0 | 2.0 | 0.00 | 0.00 | 0.00 | 72 | 1016.6 |
| 20260901122821 | 77 | 202 | 1.0 | 2.0 | 0.00 | 0.00 | 0.00 | 72 | 1016.5 |
| 20260901121920 | 76 | 247 | 1.0 | 3.0 | 0.00 | 0.00 | 0.00 | 72 | 1016.5 |
| 20260901120921 | 76 | 236 | 2.0 | 3.0 | 0.00 | 0.00 | 0.00 | 72 | 1016.2 |
| 20260901115921 | 76 | 112 | 0.0 | 0.0 | 0.00 | 0.00 | 0.00 | 72 | 1016.3 |
| 20260901114922 | 76 | 112 | 0.0 | 0.0 | 0.00 | 0.00 | 0.00 | 71 | 1016.3 |
| 20260901114019 | 77 | 112 | 0.0 | 0.0 | 0.00 | 0.00 | 0.00 | 71 | 1016.4 |
| 20260901113019 | 77 | 112 | 0.0 | 0.0 | 0.00 | 0.00 | 0.00 | 69 | 1016.4 |
| 20260901111020 | 78 | 202 | 0.0 | 2.0 | 0.00 | 0.00 | 0.00 | 69 | 1016.1 |
| 20260901110119 | 77 | 225 | 2.0 | 5.0 | 0.00 | 0.00 | 0.00 | 68 | 1016.0 |
| 20260901105121 | 77 | 217 | 1.0 | 3.0 | 0.00 | 0.00 | 0.00 | 69 | 1016.0 |
| 20260901104120 | 77 | 202 | 2.0 | 3.0 | 0.00 | 0.00 | 0.00 | 68 | 1016.1 |
| 20260901103218 | 78 | 187 | 2.0 | 4.0 | 0.00 | 0.00 | 0.00 | 68 | 1016.1 |
| 20260901100321 | 78 | 184 | 3.0 | 5.0 | 0.00 | 0.00 | 0.00 | 65 | 1015.7 |
| 20260901095335 | 78 | 157 | 3.0 | 5.0 | 0.00 | 0.00 | 0.00 | 65 | 1015.9 |
| 20260901094419 | 79 | 188 | 3.0 | 5.0 | 0.00 | 0.00 | 0.00 | 63 | 1015.8 |
| 20260901093419 | 79 | 165 | 4.0 | 7.0 | 0.00 | 0.00 | 0.00 | 63 | 1016.1 |
| 20260901092519 | 79 | 171 | 5.0 | 8.0 | 0.00 | 0.00 | 0.00 | 62 | 1016.2 |
| 20260901091521 | 79 | 166 | 5.0 | 8.0 | 0.00 | 0.00 | 0.00 | 62 | 1016.2 |
| 20260901090519 | 79 | 157 | 5.0 | 8.0 | 0.00 | 0.00 | 0.00 | 61 | 1016.2 |
| 20260901084520 | 79 | 162 | 4.0 | 7.0 | 0.00 | 0.00 | 0.00 | 61 | 1016.0 |
| 20260901083520 | 79 | 162 | 4.0 | 7.0 | 0.00 | 0.00 | 0.00 | 59 | 1015.8 |
| 20260901082536 | 79 | 169 | 3.0 | 7.0 | 0.00 | 0.00 | 0.00 | 58 | 1016.0 |
| 20260901081520 | 80 | 170 | 4.0 | 7.0 | 0.00 | 0.00 | 0.00 | 57 | 1015.9 |
| 20260901080520 | 80 | 170 | 4.0 | 8.0 | 0.00 | 0.00 | 0.00 | 56 | 1015.8 |
| 20260901074620 | 81 | 157 | 3.0 | 5.0 | 0.00 | 0.00 | 0.00 | 54 | 1015.7 |
| 20260901072619 | 81 | 157 | 4.0 | 4.0 | 0.00 | 0.00 | 0.00 | 53 | 1015.7 |
| 20260901071719 | 81 | 157 | 4.0 | 5.0 | 0.00 | 0.00 | 0.00 | 52 | 1015.6 |
| 20260901065719 | 81 | 135 | 3.0 | 4.0 | 0.00 | 0.00 | 0.00 | 52 | 1015.5 |
| 20260901064720 | 81 | 135 | 2.0 | 4.0 | 0.00 | 0.00 | 0.00 | 51 | 1015.4 |
| 20260901063734 | 81 | 112 | 0.0 | 1.0 | 0.00 | 0.00 | 0.00 | 51 | 1015.5 |
| 20260901061818 | 81 | 157 | 2.0 | 4.0 | 0.00 | 0.00 | 0.00 | 51 | 1015.2 |
| 20260901060822 | 81 | 187 | 2.0 | 4.0 | 0.00 | 0.00 | 0.00 | 51 | 1015.1 |
| 20260901055919 | 82 | 172 | 2.0 | 4.0 | 0.00 | 0.00 | 0.00 | 50 | 1015.0 |
| 20260901054920 | 82 | 174 | 3.0 | 4.0 | 0.00 | 0.00 | 0.00 | 51 | 1015.0 |
| 20260901053936 | 82 | 157 | 1.0 | 1.0 | 0.00 | 0.00 | 0.00 | 49 | 1014.9 |
| 20260901053018 | 83 | 157 | 3.0 | 4.0 | 0.00 | 0.00 | 0.00 | 50 | 1014.8 |
| 20260901052020 | 83 | 157 | 3.0 | 3.0 | 0.00 | 0.00 | 0.00 | 50 | 1014.7 |
| 20260901051019 | 84 | 157 | 3.0 | 5.0 | 0.00 | 0.00 | 0.00 | 49 | 1014.6 |
| 20260901050039 | 84 | 157 | 3.0 | 4.0 | 0.00 | 0.00 | 0.00 | 48 | 1014.7 |
| 20260901045021 | 85 | 157 | 3.0 | 4.0 | 0.00 | 0.00 | 0.00 | 47 | 1014.6 |
| 20260901043121 | 85 | 157 | 5.0 | 6.0 | 0.00 | 0.00 | 0.00 | 46 | 1014.7 |
| 20260901042139 | 85 | 157 | 4.0 | 5.0 | 0.00 | 0.00 | 0.00 | 47 | 1014.6 |
| 20260901041239 | 85 | 157 | 3.0 | 4.0 | 0.00 | 0.00 | 0.00 | 47 | 1014.6 |
| 20260901035340 | 86 | 157 | 4.0 | 5.0 | 0.00 | 0.00 | 0.00 | 45 | 1014.7 |
| 20260901034322 | 86 | 157 | 3.0 | 4.0 | 0.00 | 0.00 | 0.00 | 45 | 1014.6 |
| 20260901032324 | 87 | 157 | 2.0 | 4.0 | 0.00 | 0.00 | 0.00 | 45 | 1014.6 |
| 20260901030339 | 88 | 159 | 3.0 | 5.0 | 0.00 | 0.00 | 0.00 | 44 | 1014.5 |
| 20260901025323 | 88 | 157 | 4.0 | 5.0 | 0.00 | 0.00 | 0.00 | 43 | 1014.4 |
| 20260901024322 | 88 | 157 | 3.0 | 4.0 | 0.00 | 0.00 | 0.00 | 44 | 1014.3 |
| 20260901021322 | 89 | 157 | 4.0 | 5.0 | 0.00 | 0.00 | 0.00 | 42 | 1014.0 |
| 20260901020324 | 90 | 157 | 3.0 | 4.0 | 0.00 | 0.00 | 0.00 | 42 | 1013.8 |
| 20260901015421 | 90 | 157 | 3.0 | 4.0 | 0.00 | 0.00 | 0.00 | 41 | 1013.6 |
| 20260901013421 | 91 | 135 | 4.0 | 5.0 | 0.00 | 0.00 | 0.00 | 39 | 1013.6 |
| 20260901011521 | 92 | 157 | 4.0 | 5.0 | 0.00 | 0.00 | 0.00 | 38 | 1013.5 |
| 20260901005622 | 94 | 156 | 5.0 | 7.0 | 0.00 | 0.00 | 0.00 | 35 | 1013.3 |
| 20260901004621 | 95 | 145 | 6.0 | 8.0 | 0.00 | 0.00 | 0.00 | 35 | 1013.4 |
| 20260901003621 | 96 | 152 | 7.0 | 10.0 | 0.00 | 0.00 | 0.00 | 33 | 1013.3 |
| 20260901002622 | 96 | 151 | 4.0 | 6.0 | 0.00 | 0.00 | 0.00 | 34 | 1013.4 |
| 20260901001721 | 96 | 153 | 5.0 | 7.0 | 0.00 | 0.00 | 0.00 | 34 | 1013.2 |
| 20260901000738 | 96 | 147 | 5.0 | 10.0 | 0.00 | 0.00 | 0.00 | 34 | 1013.2 |
| 20260831235737 | 96 | 145 | 5.0 | 6.0 | 0.00 | 0.00 | 0.00 | 34 | 1013.3 |
| 20260831234822 | 96 | 145 | 5.0 | 8.0 | 0.00 | 0.00 | 0.00 | 33 | 1013.3 |
| 20260831233823 | 97 | 150 | 7.0 | 10.0 | 0.00 | 0.00 | 0.00 | 32 | 1013.1 |
| 20260831232821 | 98 | 157 | 6.0 | 8.0 | 0.00 | 0.00 | 0.00 | 31 | 1013.3 |
| 20260831231823 | 99 | 154 | 4.0 | 7.0 | 0.00 | 0.00 | 0.00 | 29 | 1013.2 |
| 20260831230822 | 99 | 156 | 6.0 | 9.0 | 0.00 | 0.00 | 0.00 | 29 | 1013.2 |
| 20260831225821 | 98 | 105 | 2.0 | 7.0 | 0.00 | 0.00 | 0.00 | 30 | 1013.2 |
| 20260831224822 | 98 | 136 | 9.0 | 15.0 | 0.00 | 0.00 | 0.00 | 30 | 1013.3 |
| 20260831223921 | 99 | 152 | 10.0 | 14.0 | 0.00 | 0.00 | 0.00 | 29 | 1013.4 |
| 20260831222922 | 98 | 146 | 2.0 | 7.0 | 0.00 | 0.00 | 0.00 | 31 | 1013.3 |
| 20260831221920 | 97 | 116 | 4.0 | 8.0 | 0.00 | 0.00 | 0.00 | 31 | 1013.5 |
| 20260831220923 | 97 | 163 | 4.0 | 7.0 | 0.00 | 0.00 | 0.00 | 32 | 1013.6 |
| 20260831215922 | 97 | 140 | 4.0 | 7.0 | 0.00 | 0.00 | 0.00 | 32 | 1013.6 |
| 20260831214923 | 97 | 138 | 4.0 | 7.0 | 0.00 | 0.00 | 0.00 | 32 | 1013.8 |
| 20260831212121 | 99 | 157 | 11.0 | 14.0 | 0.00 | 0.00 | 0.00 | 31 | 1014.0 |
| 20260831205221 | 97 | 162 | 3.0 | 6.0 | 0.00 | 0.00 | 0.00 | 32 | 1014.3 |
| 20260831204237 | 98 | 156 | 10.0 | 12.0 | 0.00 | 0.00 | 0.00 | 32 | 1014.5 |
| 20260831203322 | 98 | 160 | 6.0 | 11.0 | 0.00 | 0.00 | 0.00 | 31 | 1014.6 |
| 20260831202420 | 98 | 176 | 7.0 | 12.0 | 0.00 | 0.00 | 0.00 | 32 | 1014.7 |
| 20260831201423 | 97 | 101 | 5.0 | 8.0 | 0.00 | 0.00 | 0.00 | 33 | 1014.8 |
| 20260831200422 | 98 | 148 | 7.0 | 12.0 | 0.00 | 0.00 | 0.00 | 32 | 1015.0 |
| 20260831193422 | 97 | 157 | 12.0 | 19.0 | 0.00 | 0.00 | 0.00 | 33 | 1015.3 |